Regional Weather Roundup
Issued by NWS

Home | Current Version | Previous Version | Graphics & Text | Print | Product List | Glossary On
Versions: 1 2 3 4 5 6 7 8 9 10 11 12 13 14 15 16 17 18 19 20 21 22 23 24 25 26 27 28 29 30 31 32 33 34 35 36 37 38 39 40 41 42 43 44 45 46 47 48 49 50
000
ASUS43 KLOT 091508
RWRIL

ILLINOIS REGIONAL WEATHER ROUNDUP
NATIONAL WEATHER SERVICE CHICAGO/ROMEOVILLE IL
900 AM CST FRI DEC 09 2016

NOTE: "FAIR" INDICATES FEW OR NO CLOUDS BELOW 12,000 FEET WITH NO
SIGNIFICANT WEATHER AND/OR OBSTRUCTIONS TO VISIBILITY.

* THESE STATIONS ARE NOT UNDER NWS QUALITY CONTROL. THEY ALSO MAY NOT
  REPORT WEATHER SUCH AS PRECIPITATION OR FOG.

ILZ001-002-007-009-015-016-024-091600-
NORTHWEST ILLINOIS

CITY           SKY/WX    TMP DP  RH WIND       PRES   REMARKS
MOLINE         PTSUNNY   20  11  68 NW7       30.59R WCI  11
STERLING*      FLURRIES  19  15  84 NW9       30.57R WCI   8
SAVANNA*       MOSUNNY   20  14  77 W6        30.57R WCI  12
$$

ILZ003-004-008-010-011-017-018-091600-
NORTH CENTRAL ILLINOIS

CITY           SKY/WX    TMP DP  RH WIND       PRES   REMARKS
ROCKFORD       FLURRIES  22  15  75 W9        30.55R WCI  12
FREEPORT*      FLURRIES  20  15  80 W7        30.56R WCI  11
ROCHELLE*      CLOUDY    21  17  82 W12       30.55R WCI   9
DE KALB*       FLURRIES  21  17  84 W10       30.53R WCI  10
$$

ILZ005-006-012>014-019>023-091600-
NORTHEAST ILLINOIS

CITY           SKY/WX    TMP DP  RH WIND       PRES   REMARKS
CHICAGO-OHARE  FLURRIES  23  17  78 W12       30.51R WCI  12
CHICAGO-MIDWAY FLURRIES  24  15  68 W12       30.52R WCI  13
AURORA         CLOUDY    23  17  78 W13       30.54R WCI  11
LANSING*       CLOUDY    24  20  84 W8        30.52S WCI  15
JOLIET*        CLOUDY    24  18  79 W9        30.55R WCI  14
WAUKEGAN       MOSUNNY   24  14  65 NW14G21   30.49R WCI  12
DUPAGE AIRPORT FLURRIES  23  16  74 W13       30.52R WCI  11
KANKAKEE*      MIX PCPN  23  17  77 W13       30.56R WCI  11
WHEELING       CLOUDY    24  16  71 W8        30.52R WCI  15
MORRIS*        CLOUDY    22  17  81 W12       30.55R WCI  10
ROMEOVILLE*    CLOUDY    23  20  91 W9        30.54R WCI  13
NORTHERLY ISL    N/A     25  18  74 W9          N/A  WCI  16
$$

LMZ740>746-091600-
SOUTHERN LAKE MICHIGAN

STATION/POSITION SKY/WX   TEMP    WIND        PRES    VSBY  WAVE
                          AIR SEA DIR/SP/G                  HT/PER
                          (F)     (DEG/KT/KT) (MB)    (MI)  (FT/S)
HARRISON CRIB              25     290/ 13/ 14   N/A
BURNHAM HARBOR             25     270/  9/ 13   N/A
CALUMET HARBOR             24     280/  6/ 10 1032.6R
BURNS HARBOR               27     270/ 16/ 20 1032.8R
$$

ILZ025>027-034>036-040-047-049-050-058-095>099-091600-
WEST-CENTRAL ILLINOIS

CITY           SKY/WX    TMP DP  RH WIND       PRES   REMARKS
QUINCY         CLOUDY    18  13  80 W5        30.62R WCI  11
GALESBURG*     MOSUNNY   19  13  77 NW10      30.59R WCI   7
MACOMB*        CLOUDY    20  12  71 NW8       30.63R WCI  10
JACKSONVILLE*  FLURRIES  21  15  77 SW8       30.62R WCI  11
PITTSFIELD*    FLURRIES  19  14  81 W5        30.63S WCI  12
$$

ILZ028>032-037-038-041>044-048-051>054-059>061-091600-
CENTRAL ILLINOIS

CITY           SKY/WX    TMP DP  RH WIND       PRES   REMARKS
PONTIAC        CLOUDY    23  16  77 W12       30.58R WCI  11
BLOOMINGTON    FLURRIES  22  15  75 W12       30.57R WCI  10
DECATUR        LGT SNOW  22  16  78 NW6       30.59R WCI  14
PEORIA         MOSUNNY   22  13  68 W10       30.60R WCI  11
LACON*         CLOUDY    21  13  71 W9        30.58R WCI  11
LINCOLN*       CLOUDY    24  14  67 NW5       30.60R WCI  18
SPRINGFIELD    CLOUDY    24  14  65 NW9       30.61R WCI  14
TAYLORVILLE    FLURRIES  22  15  75 CALM      30.61R
$$

ILZ033-039-045-046-055>057-062-063-091600-
EAST-CENTRAL ILLINOIS

CITY           SKY/WX    TMP DP  RH WIND       PRES   REMARKS
CHAMPAIGN      FLURRIES  24  11  57 W10       30.57R WCI  14
RANTOUL*       CLOUDY    26  17  70 W9        30.57R WCI  16
MATTOON        CLOUDY    23  11  60 N9        30.57S WCI  13
PARIS*         FLURRIES  24  16  72 W9        30.60R WCI  14
$$

ILZ079-100>102-091600-
SOUTHWEST ILLINOIS

CITY           SKY/WX    TMP DP  RH WIND       PRES   REMARKS
ALTON          SUNNY     19  14  79 NW7       30.64R WCI  10
BELLEVILLE     SUNNY     22  16  76 NW7       30.63R WCI  14
CAHOKIA*       SUNNY     22  12  65 W7        30.65R WCI  13
SPARTA*        SUNNY     21  15  76 NW5       30.65R WCI  15
$$

ILZ064>066-069>071-074>076-080>082-084>086-088>090-092>094-091600-
SOUTH-CENTRAL ILLINOIS

CITY           SKY/WX    TMP DP  RH WIND       PRES   REMARKS
CARBONDALE     SUNNY     22  16  78 NW8       30.65R WCI  12
CAIRO*         SUNNY     24  16  72 N7        30.66R WCI  16
EFFINGHAM*     CLOUDY    24  18  75 SW6       30.62R WCI  17
MARION         SUNNY     23  16  74 NW5       30.65R WCI  17
CENTRALIA*     SUNNY     23  17  78 W7        30.62S WCI  15
SALEM*         SUNNY     24  15  71 W6        30.63R WCI  16
METROPOLIS*    SUNNY     24  17  72 CALM      30.66R
$$

ILZ067-068-072-073-078-083-087-091-091600-
SOUTHEAST ILLINOIS

CITY           SKY/WX    TMP DP  RH WIND       PRES   REMARKS
LAWRENCEVILLE  CLOUDY    24  14  65 CALM      30.62S
FLORA*         MOSUNNY   25  16  69 W5        30.63S WCI  19
FAIRFIELD*     SUNNY     24  15  70 W3        30.63R
HARRISBURG*    SUNNY     24  17  74 W6        30.66R WCI  17
ROBINSON*      FLURRIES  23  16  75 CALM      30.62S
CARMI*         SUNNY     24  16  70 W9        30.64R WCI  15
$$

ABBREVIATIONS USED IN REMARKS
   TC - TEMPERATURE IN CELSIUS
  WCI - WIND CHILL INDEX
   HX - HEAT INDEX
  VSB - VISIBILITY
$$





USA.gov is the U.S. government's official web portal to all federal, state and local government web resources and services.